Regional Weather Roundup
Issued by NWS

Home | Current Version | Previous Version | Graphics & Text | Print | Product List | Glossary On
Versions: 1 2 3 4 5 6 7 8 9 10 11 12 13 14 15 16 17 18 19 20 21 22 23 24 25 26 27 28 29 30 31 32 33 34 35 36 37 38 39 40 41 42 43 44 45 46 47 48 49 50
519
ASUS43 KDTX 232110
RWRMI
MICHIGAN HOURLY REGIONAL WEATHER ROUNDUP
NATIONAL WEATHER SERVICE DETROIT/PONTIAC MI
500 PM EDT MON MAY 23 2016

NOTE: "FAIR" INDICATES FEW OR NO CLOUDS BELOW 12,000 FEET WITH NO
SIGNIFICANT WEATHER AND/OR OBSTRUCTION TO VISIBILITY.

MIZ047>049-052>055-059>063-066>070-074>076-081>083-232200-
SOUTHEAST LOWER MICHIGAN

CITY           SKY/WX    TMP DP  RH WIND       PRES   REMARKS
ADRIAN         SUNNY     78  35  21 VRB3      30.01F
ALMA           SUNNY     77  40  26 CALM      29.98F
ANN ARBOR      SUNNY     76  32  20 W6        30.00F
BAD AXE        SUNNY     75  34  22 W3        29.99F
CARO           SUNNY     78  35  20 W5        29.98F
DETROIT CITY   SUNNY     75  42  30 SW6       30.00F
DETROIT        SUNNY     76  45  33 VRB3      30.01F
FLINT          SUNNY     79  28  15 S5        30.00F
GROSSE ILE     SUNNY     70  41  35 S7        30.01F
HILLSDALE      SUNNY     75   4   6 SW3       30.01F
HOWELL         SUNNY     77  31  18 CALM      30.00F

CITY           SKY/WX    TMP DP  RH WIND       PRES   REMARKS
JACKSON        LGT RAIN  77  35  21 E5        30.00F
LAMBERTVILLE   SUNNY     76  46  33 SE5       30.01F
LANSING        SUNNY     78  38  23 CALM      30.00F
LAPEER         FAIR      77  24  14 SW3       30.00F
MASON          SUNNY     76  33  21 CALM      30.00F
MONROE         SUNNY     73  47  38 SE8       30.01F
MT. CLEMENS    SUNNY     74  48  40 SE9       29.99F
PONTIAC        SUNNY     77  27  15 S6        30.00F
PORT HOPE        N/A     57  46  66 E14       29.99F
PORT HURON     SUNNY     75  41  29 S6        30.00F
TRI CITIES     SUNNY     80  37  21 S3        29.98F
MIDLAND        FAIR      80  39  22 S7        29.96F
TROY           SUNNY     79  36  21 S8        30.01F
SAGINAW HB     SUNNY     77  32  19 W5        29.99F
$$
MIZ043>046-050>051-056>058-064>065-071>073-077>080-232200-
SOUTHWEST LOWER MICHIGAN

CITY           SKY/WX    TMP DP  RH WIND       PRES   REMARKS
BATTLE CREEK   SUNNY     76  34  21 SE7       29.99F
BENTON HARBOR  SUNNY     80  39  23 SE6       29.97F
BIG RAPIDS     SUNNY     78  37  23 S8        29.95F
COLDWATER      SUNNY     75  34  22 SE6       30.00F
FREMONT        FAIR      79  37  22 SW8       29.96F
HOLLAND        SUNNY     77  43  29 W14       29.98F
GRAND RAPIDS   MOSUNNY   82  42  24 CALM      29.97F
IONIA          FAIR      78  34  20 S5        29.97F
KALAMAZOO      SUNNY     79  34  19 VRB6      29.99F
LUDINGTON      SUNNY     71  33  24 SW13G22   29.98F
MARSHALL       SUNNY     78  33  19 SW6       29.99F
MOUNT PLEASANT SUNNY     79  40  25 S5        29.96F
MUSKEGON       SUNNY     75  37  25 SW10      29.98F
SOUTH HAVEN    SUNNY     76  40  27 W7        29.97S
$$
MIZ016>042-232200-
NORTHERN LOWER MICHIGAN

CITY           SKY/WX    TMP DP  RH WIND       PRES   REMARKS
ALPENA         SUNNY     76  41  28 SE13G21   29.95F
BEAVER ISLAND  SUNNY     71  38  29 SW13G18   29.95F
BELLAIRE       SUNNY     81  39  22 W5        29.92F
CADILLAC       SUNNY     80  38  22 S6        29.96S
CHARLEVOIX     SUNNY     72  41  33 W15G22    29.97F
FRANKFORT      SUNNY     71  36  28 SW10G16   29.96F
GAYLORD        SUNNY     81  31  16 VRB3      29.94F
GRAYLING       SUNNY     82  36  19 SE9G16    29.95F
HARBOR SPRINGS SUNNY     72  43  35 SW7       29.94F
HOUGHTON LAKE  SUNNY     80  36  20 W5        29.96F
MANISTEE       SUNNY     75  36  23 SW13      29.97F
OSCODA         SUNNY     76  34  21 S14G21    29.96F
PELLSTON       SUNNY     78  40  25 W14       29.94F
ROGERS CITY    SUNNY     70  42  36 NE7       29.94F
TRAVERSE CITY  SUNNY     82  40  22 W10       29.92F
$$
MIZ007>008-015-232200-
EASTERN UPPER MICHIGAN

CITY           SKY/WX    TMP DP  RH WIND       PRES   REMARKS
KINROSS          N/A     77  28  16 SW7       29.94F
MACKINAC ISLAN SUNNY     67  42  39 W9G18     29.95F
NEWBERRY       SUNNY     73  44  34 S14       29.92F
S. S. MARIE    SUNNY     79  36  21 SW14      29.92F
MUNISING         N/A     80  45  28 S18G29    29.83F
$$
MIZ004>006-011>014-085-232200-
CENTRAL UPPER MICHIGAN

CITY           SKY/WX    TMP DP  RH WIND       PRES   REMARKS
MANISTIQUE     SUNNY     59  47  63 S8        29.93F
ESCANABA       CLOUDY    64  48  55 S12G18    29.88F
MENOMINEE      MOSUNNY   74  51  44 S15G23    29.88F
SAWYER-GWINN   SUNNY     81  48  32 S21G31    29.83F
$$
MIZ001>003-009>011-084-232200-
WESTERN UPPER MICHIGAN

CITY           SKY/WX    TMP DP  RH WIND       PRES   REMARKS
IRON MOUNTAIN  SUNNY     86  42  21 S15G25    29.82F
HOUGHTON       SUNNY     87  47  24 S16G24    29.71F
COPPER HARBOR    N/A     86  40  19 VRB7G17   29.71F
IRONWOOD       MOSUNNY   82  57  42 SW14G22   29.71R
$$

ABBREVIATIONS USED IN REMARKS
   TC - TEMPERATURE IN CELSIUS
  WCI - WIND CHILL INDEX
   HX - HEAT INDEX
  VSB - VISIBILITY





USA.gov is the U.S. government's official web portal to all federal, state and local government web resources and services.